Location: Bottenau
(48.5138°N, 8.0462°E)
Time: 03:44:58
(UTC+00:00)

ATLAS 3B R/B - Pass Details

Date: 28 July 2021
Orbit: 1001 x 1194 km, 63.8° (Epoch: 09 September)

Event Time Altitude Azimuth Distance (km) Brightness Sun altitude
Rises 21:28:28 0° 314° (NW) 3,928 7.2 -17.1°
Reaches altitude 10° 21:31:27 10° 304° (WNW) 2,997 6.0 -17.3°
Maximum altitude 21:37:23 29° 248° (WSW) 1,972 4.1 -17.8°
Enters shadow 21:42:23 14° 197° (SSW) 2,776 4.5 -18.2°
